EW5897 Weather Reports


Display with metric or nautical units.
time (UTC)temp
F
wind
direction
speed
MPH
gust
MPH
rain 1hr
in
rain 24hr
in
rain mn
in
humidity
%
barometer
mb
20260506021905 34 339 6.0 12.0 0.00 0.00 0.00 65 1017.0
20260506015902 35 332 6.0 10.0 0.00 0.00 0.00 63 1016.8
20260506013902 36 342 8.0 14.0 0.00 0.00 0.00 59 1016.7
20260506011915 38 338 7.0 14.0 0.00 0.00 0.00 56 1016.5
20260506010407 38 333 10.0 16.0 0.00 0.00 0.00 56 1016.6
20260506004856 39 338 8.0 15.0 0.00 0.00 0.00 55 1016.4
20260506002908 39 345 10.0 17.0 0.00 0.00 0.00 55 1016.3
20260506001349 40 11 12.0 17.0 0.00 0.00 0.00 53 1016.3
20260505235414 39 304 11.0 18.0 0.00 0.00 0.00 55 1016.2
20260505233904 38 360 9.0 17.0 0.00 0.00 0.00 55 1016.3
20260505231913 40 330 10.0 17.0 0.00 0.00 0.00 53 1016.0
20260505230356 39 332 11.0 16.0 0.00 0.00 0.00 54 1016.1
20260505224854 40 320 10.0 23.0 0.00 0.00 0.00 53 1016.2
20260505222916 39 335 12.0 19.0 0.00 0.00 0.00 53 1016.3
20260505221409 39 343 12.0 18.0 0.00 0.00 0.00 52 1016.1
20260505215404 38 304 8.0 17.0 0.00 0.00 0.00 54 1016.2
20260505213404 38 306 10.0 17.0 0.00 0.00 0.00 55 1016.2
20260505211902 38 342 12.0 18.0 0.00 0.00 0.00 53 1016.2
20260505205906 37 355 10.0 17.0 0.00 0.00 0.00 54 1016.2
20260505204403 37 5 10.0 18.0 0.00 0.00 0.00 55 1016.3
20260505202412 37 355 9.0 18.0 0.00 0.00 0.00 56 1016.1
20260505200901 36 355 9.0 18.0 0.00 0.00 0.00 57 1016.2
20260505195357 36 348 10.0 19.0 0.00 0.00 0.00 55 1016.1
20260505193849 36 311 13.0 20.0 0.00 0.00 0.00 56 1016.2
20260505191903 36 313 12.0 19.0 0.00 0.00 0.00 55 1015.9
20260505185904 36 325 12.0 21.0 0.00 0.00 0.00 54 1015.7
20260505183914 36 302 14.0 22.0 0.00 0.00 0.00 53 1015.8
20260505181906 35 342 13.0 20.0 0.00 0.00 0.00 55 1015.8
20260505175907 35 334 14.0 20.0 0.00 0.00 0.00 58 1015.5
20260505174405 34 317 15.0 19.0 0.00 0.00 0.00 57 1015.4
20260505172901 34 328 12.0 21.0 0.00 0.00 0.00 57 1015.6
20260505171353 34 330 15.0 21.0 0.00 0.00 0.00 56 1015.5
20260505165354 33 314 13.0 21.0 0.00 0.00 0.00 59 1015.4
20260505163415 33 322 14.0 20.0 0.00 0.00 0.00 56 1015.4
20260505161411 33 336 13.0 19.0 0.00 0.00 0.00 57 1015.3
20260505152354 32 355 11.0 17.0 0.00 0.00 0.00 61 1015.3
20260505150413 31 327 14.0 21.0 0.00 0.00 0.00 60 1015.1
20260505124909 28 318 8.0 14.0 0.00 0.00 0.00 70 1014.2
20260505123404 28 327 6.0 14.0 0.00 0.00 0.00 70 1014.0
20260505121409 27 309 8.0 13.0 0.00 0.00 0.00 70 1013.8
20260505115410 27 317 5.0 10.0 0.00 0.00 0.00 72 1013.5
20260505113858 26 300 3.0 9.0 0.00 0.00 0.00 74 1013.3
20260505111854 26 323 5.0 10.0 0.00 0.00 0.00 72 1013.2
20260505100910 26 287 4.0 8.0 0.00 0.00 0.00 79 1012.8
20260505094912 26 281 5.0 8.0 0.00 0.00 0.00 79 1012.7
20260505093353 26 273 6.0 8.0 0.00 0.00 0.00 80 1012.5
20260505091403 25 296 3.0 5.0 0.00 0.00 0.00 82 1012.3
20260505085856 25 282 3.0 5.0 0.00 0.00 0.00 80 1012.3
20260505083901 24 285 3.0 5.0 0.00 0.00 0.00 81 1012.2
20260505081856 24 296 2.0 4.0 0.00 0.00 0.00 78 1012.1
20260505075904 26 309 3.0 4.0 0.00 0.00 0.00 76 1012.0
20260505074357 27 328 3.0 11.0 0.00 0.00 0.00 74 1011.9
20260505072408 26 322 3.0 5.0 0.00 0.00 0.00 75 1011.9
20260505070859 26 282 1.0 4.0 0.00 0.00 0.00 74 1011.8
20260505065356 28 334 2.0 5.0 0.00 0.00 0.00 69 1011.9
20260505063851 29 327 3.0 6.0 0.00 0.00 0.00 69 1011.7
20260505061855 29 340 5.0 12.0 0.00 0.00 0.00 67 1011.5
20260505055919 30 344 4.0 8.0 0.00 0.00 0.00 67 1011.6
20260505053906 29 323 4.0 10.0 0.00 0.00 0.00 68 1011.5
20260505052405 29 316 2.0 4.0 0.00 0.00 0.00 68 1011.3
20260505040900 33 329 4.0 9.0 0.00 0.00 0.00 59 1010.7
20260505034912 34 311 5.0 10.0 0.00 0.00 0.00 56 1010.5
20260505032914 35 332 6.0 13.0 0.00 0.00 0.00 54 1010.4
20260505030907 36 315 11.0 17.0 0.00 0.00 0.00 50 1010.3
20260505024912 37 319 14.0 18.0 0.00 0.00 0.00 48 1010.0
20260505023359 37 327 8.0 12.0 0.00 0.00 0.00 50 1009.9